Weather History for Truth Or Consequences, NM

Change the Weather History Date:

Saturday, October 20, 2012

  Actual Average Record
Temperature  
Mean Temperature 68 °F -  
Max Temperature 86 °F 73 °F 88 °F (2007)
Min Temperature 49 °F 46 °F 35 °F (1999)
Degree Days  
Heating Degree Days 0    
Month to date heating degree days 14  
Since 1 July heating degree days 27  
Cooling Degree Days 3    
Month to date cooling degree days 71  
Year to date cooling degree days 2096  
Growing Degree Days 17 (Base 50)    
Moisture  
Dew Point 22 °F    
Average Humidity 19    
Maximum Humidity 28    
Minimum Humidity 10    
Precipitation  
Precipitation 0.00 in - 0.37 in (1998)
Month to date precipitation 0.02  
Year to date precipitation 2.59  
Sea Level Pressure  
Sea Level Pressure 29.74 in    
Wind  
Wind Speed 8 mph (West)    
Max Wind Speed 20 mph    
Max Gust Speed 25 mph    
Visibility 10 miles    
Events      
T = Trace of Precipitation, MM = Missing Value Source: NWS Daily Summary

Daily Weather History Graph

Daily Weather History Graph

Search for Another Location

Airport:

Trip Planner

Search our weather history database for the weather conditions in past years. The results will help you decide how hot, cold, wet, or windy it might be!

Date:

Astronomy

Oct. 20, 2012 Rise Set
Actual Time 7:17 AM MDT 6:29 PM MDT
Civil Twilight 6:52 AM MDT 6:54 PM MDT
Nautical Twilight 6:23 AM MDT 7:23 PM MDT
Astronomical Twilight 5:55 AM MDT 7:51 PM MDT
Moon 12:47 PM MDT (10/20) 11:26 PM MDT (10/20)
Length of Visible Light 12h 01m
Length of Day
11h 11m
Waxing Crescent, 35% of the Moon is Illuminated
Oct 20
Waxing Crescent
Oct 21
First Quarter
Oct 29
Full
Nov 6
Last Quarter
Nov 13
New

Hourly Weather History & Observations

Time (MDT) Temp. Dew Point Humidity Pressure Visibility Wind Dir Wind Speed Gust Speed Precip Events Conditions
12:53 AM 55.9 °F 16.0 °F 21% 29.80 in 10.0 mi WNW 9.2 mph - N/A   Clear
1:53 AM 59.0 °F 16.0 °F 19% 29.79 in 10.0 mi WNW 10.4 mph - N/A   Clear
2:53 AM 55.9 °F 16.0 °F 21% 29.78 in 10.0 mi Calm Calm - N/A   Clear
3:53 AM 57.0 °F 16.0 °F 20% 29.78 in 10.0 mi WNW 10.4 mph - N/A   Clear
4:53 AM 61.0 °F 16.0 °F 17% 29.76 in 10.0 mi WNW 15.0 mph - N/A   Clear
5:53 AM 55.0 °F 16.0 °F 22% 29.78 in 10.0 mi Calm Calm - N/A   Clear
6:53 AM 51.1 °F 16.0 °F 25% 29.81 in 10.0 mi Calm Calm - N/A   Clear
7:53 AM 51.1 °F 16.0 °F 25% 29.84 in 10.0 mi NNW 4.6 mph - N/A   Clear
8:53 AM 60.1 °F 19.0 °F 20% 29.83 in 10.0 mi North 8.1 mph - N/A   Clear
9:53 AM 66.0 °F 19.0 °F 17% 29.83 in 10.0 mi ENE 3.5 mph - N/A   Clear
10:53 AM 70.0 °F 18.0 °F 14% 29.83 in 10.0 mi ENE 4.6 mph - N/A   Clear
11:53 AM 73.9 °F 19.0 °F 13% 29.80 in 10.0 mi Calm Calm - N/A   Clear
12:53 PM 78.1 °F 21.0 °F 12% 29.76 in 10.0 mi Variable 5.8 mph - N/A   Clear
1:53 PM 81.0 °F 24.1 °F 12% 29.70 in 10.0 mi South 6.9 mph - N/A   Clear
2:53 PM 82.9 °F 32.0 °F 16% 29.66 in 10.0 mi South 8.1 mph 18.4 mph N/A   Clear
3:53 PM 84.9 °F 32.0 °F 15% 29.63 in 10.0 mi South 9.2 mph 17.3 mph N/A   Clear
4:53 PM 84.9 °F 32.0 °F 15% 29.60 in 10.0 mi SSE 12.7 mph - N/A   Clear
5:41 PM 84.2 °F 21.2 °F 10% 29.83 in 10.0 mi WSW 18.4 mph 23.0 mph N/A   Clear
5:53 PM 82.9 °F 21.0 °F 10% 29.62 in 10.0 mi WSW 16.1 mph - N/A   Clear
6:53 PM 78.1 °F 24.1 °F 14% 29.66 in 10.0 mi WSW 13.8 mph 24.2 mph N/A   Clear
7:53 PM 75.0 °F 28.9 °F 18% 29.70 in 10.0 mi WSW 17.3 mph 25.3 mph N/A   Clear
8:53 PM 72.0 °F 28.9 °F 20% 29.70 in 10.0 mi WSW 10.4 mph - N/A   Clear
9:53 PM 70.0 °F 30.0 °F 23% 29.71 in 10.0 mi NNW 5.8 mph - N/A   Clear
10:53 PM 66.0 °F 28.9 °F 25% 29.72 in 10.0 mi NW 4.6 mph - N/A   Clear
11:53 PM 64.0 °F 30.0 °F 28% 29.72 in 10.0 mi West 8.1 mph - N/A   Clear